TimeEST,TemperatureF,Dew PointF,Humidity,Sea Level PressureIn,VisibilityMPH,Wind Direction,Wind SpeedMPH,Gust SpeedMPH,PrecipitationIn,Events,Conditions,WindDirDegrees,DateUTC
12:22 AM,30.9,27.0,85,29.96,10.0,SE,4.6,-,N/A,,Overcast,130,2013-01-29 05:22:00
12:34 AM,30.9,27.0,85,29.96,10.0,SE,5.8,-,N/A,,Overcast,130,2013-01-29 05:34:00
12:55 AM,30.9,27.0,85,29.97,10.0,ESE,5.8,-,N/A,,Overcast,120,2013-01-29 05:55:00
1:55 AM,30.0,26.1,85,29.94,10.0,ESE,8.1,-,N/A,,Overcast,120,2013-01-29 06:55:00
2:55 AM,28.9,24.1,82,29.92,10.0,ESE,9.2,-,N/A,,Overcast,120,2013-01-29 07:55:00
3:10 AM,28.0,24.1,85,29.88,10.0,ESE,9.2,-,N/A,,Overcast,110,2013-01-29 08:10:00
3:18 AM,28.0,23.0,81,29.89,10.0,ESE,9.2,20.7,N/A,,Overcast,120,2013-01-29 08:18:00
3:55 AM,28.0,23.0,81,29.89,10.0,ESE,11.5,17.3,N/A,,Overcast,110,2013-01-29 08:55:00
4:03 AM,27.0,23.0,85,29.85,10.0,East,10.4,-,N/A,,Overcast,100,2013-01-29 09:03:00
4:55 AM,27.0,24.1,89,29.86,7.0,ESE,11.5,18.4,N/A,,Overcast,120,2013-01-29 09:55:00
5:33 AM,27.0,24.1,89,29.81,2.5,ESE,13.8,20.7,N/A,,Overcast,120,2013-01-29 10:33:00
5:55 AM,27.0,25.0,92,29.83,2.5,ESE,11.5,-,N/A,,Overcast,110,2013-01-29 10:55:00
6:08 AM,27.0,25.0,92,29.81,4.0,East,13.8,20.7,N/A,,Overcast,100,2013-01-29 11:08:00
6:55 AM,25.0,23.0,92,29.81,4.0,ESE,10.4,24.2,N/A,,Overcast,110,2013-01-29 11:55:00
7:55 AM,26.1,24.1,92,29.77,4.0,ESE,11.5,21.9,N/A,,Overcast,120,2013-01-29 12:55:00
8:12 AM,27.0,24.1,89,29.74,4.0,ESE,11.5,23.0,0.00,Rain,Light Freezing Rain,120,2013-01-29 13:12:00
8:44 AM,28.0,25.0,88,29.74,2.0,ESE,11.5,21.9,0.02,Rain,Light Freezing Rain,110,2013-01-29 13:44:00
8:55 AM,28.0,26.1,92,29.75,2.0,ESE,9.2,19.6,0.03,Rain,Light Freezing Rain,110,2013-01-29 13:55:00
2:55 PM,33.1,30.9,92,29.56,1.5,ESE,9.2,17.3,N/A,,Overcast,120,2013-01-29 19:55:00
3:55 PM,33.1,30.9,92,29.55,1.0,East,5.8,-,0.00,,Overcast,100,2013-01-29 20:55:00
4:03 PM,33.1,30.9,92,29.53,0.8,East,5.8,-,0.00,Rain,Light Rain,90,2013-01-29 21:03:00
4:15 PM,33.1,32.0,96,29.54,1.0,East,4.6,-,0.01,Rain,Light Rain,100,2013-01-29 21:15:00
4:25 PM,33.1,32.0,96,29.53,0.8,ESE,5.8,-,0.01,,Mist,110,2013-01-29 21:25:00
4:41 PM,34.0,32.0,92,29.53,1.2,East,5.8,-,0.02,,Overcast,100,2013-01-29 21:41:00
4:55 PM,34.0,32.0,92,29.54,1.2,East,4.6,-,0.02,,Overcast,90,2013-01-29 21:55:00
5:30 PM,34.0,32.0,92,29.52,0.8,East,5.8,-,N/A,,Mist,80,2013-01-29 22:30:00
5:39 PM,34.0,32.0,92,29.52,1.2,East,4.6,-,N/A,,Overcast,80,2013-01-29 22:39:00
5:55 PM,34.0,32.0,92,29.55,1.2,East,3.5,-,N/A,,Overcast,90,2013-01-29 22:55:00
6:20 PM,34.0,32.0,92,29.52,0.8,NE,3.5,-,0.00,Rain,Light Rain,40,2013-01-29 23:20:00
6:55 PM,34.0,32.0,92,29.55,0.5,Calm,Calm,-,0.01,Fog,Fog,0,2013-01-29 23:55:00
7:55 PM,34.0,32.0,92,29.55,0.5,Calm,Calm,-,N/A,Fog,Fog,0,2013-01-30 00:55:00
8:55 PM,34.0,32.0,92,29.55,0.5,Calm,Calm,-,N/A,Fog,Fog,0,2013-01-30 01:55:00
9:55 PM,34.0,30.9,89,29.53,0.5,NW,4.6,-,0.01,Fog-Rain,Light Rain,310,2013-01-30 02:55:00
10:55 PM,34.0,32.0,92,29.49,0.5,WNW,4.6,-,0.01,Fog-Rain,Light Rain,300,2013-01-30 03:55:00
11:55 PM,35.1,33.1,92,29.48,0.8,NW,6.9,-,0.01,Rain,Light Rain,310,2013-01-30 04:55:00